Weather History for Liberal, KS

Change the Weather History Date:

Monday, May 28, 2012

  Actual Average Record
Temperature  
Mean Temperature 69 °F -  
Max Temperature 87 °F 82 °F 105 °F (1974)
Min Temperature 51 °F 55 °F 40 °F (1992)
Cooling Degree Days 4    
Growing Degree Days 19 (Base 50)    
Moisture  
Dew Point 30 °F    
Average Humidity 23    
Maximum Humidity 44    
Minimum Humidity 12    
Precipitation  
Precipitation 0.00 in - - ()
Sea Level Pressure  
Sea Level Pressure 29.92 in    
Wind  
Wind Speed 13 mph (NNW)    
Max Wind Speed 26 mph    
Max Gust Speed 32 mph    
Visibility 10 miles    
Events      
Averages and records for this station are not official NWS values.
T = Trace of Precipitation, MM = Missing Value Source: NWS Daily Summary

Daily Weather History Graph

Daily Weather History Graph

Search for Another Location

Airport:

Trip Planner

Search our weather history database for the weather conditions in past years. The results will help you decide how hot, cold, wet, or windy it might be!

Date:

Astronomy

May. 28, 2012 Rise Set
Actual Time 6:27 AM CDT 8:55 PM CDT
Civil Twilight 5:56 AM CDT 9:25 PM CDT
Nautical Twilight 5:19 AM CDT 10:03 PM CDT
Astronomical Twilight 4:38 AM CDT 10:44 PM CDT
Moon 1:32 PM CDT (5/28) 1:39 AM CDT (5/28)
Length of Visible Light 15h 28m
Length of Day
14h 28m
Waxing Crescent, 49% of the Moon is Illuminated
May 28
Waxing Crescent
May 28
First Quarter
Jun 4
Full
Jun 11
Last Quarter
Jun 19
New

Hourly Weather History & Observations

Time (CDT) Temp. Dew Point Humidity Pressure Visibility Wind Dir Wind Speed Gust Speed Precip Events Conditions
12:15 AM 66.2 °F 23.0 °F 19% 29.80 in 10.0 mi WNW 15.0 mph - N/A   Clear
12:35 AM 64.4 °F 23.0 °F 21% 29.81 in 10.0 mi West 16.1 mph 20.7 mph N/A   Clear
12:55 AM 68.0 °F 24.8 °F 20% 29.80 in 10.0 mi WNW 25.3 mph 29.9 mph N/A   Clear
1:15 AM 68.0 °F 23.0 °F 18% 29.82 in 10.0 mi NW 26.5 mph 32.2 mph N/A   Clear
1:35 AM 68.0 °F 24.8 °F 20% 29.82 in 10.0 mi NW 23.0 mph 31.1 mph N/A   Clear
1:55 AM 66.2 °F 26.6 °F 23% 29.83 in 10.0 mi NW 20.7 mph 26.5 mph N/A   Clear
2:15 AM 64.4 °F 28.4 °F 26% 29.84 in 10.0 mi NW 23.0 mph - N/A   Clear
2:35 AM 64.4 °F 28.4 °F 26% 29.85 in 10.0 mi NNW 21.9 mph - N/A   Clear
2:55 AM 62.6 °F 28.4 °F 27% 29.86 in 10.0 mi NW 17.3 mph 23.0 mph N/A   Clear
3:15 AM 62.6 °F 28.4 °F 27% 29.87 in 10.0 mi NW 18.4 mph - N/A   Clear
3:35 AM 60.8 °F 28.4 °F 29% 29.88 in 10.0 mi NW 13.8 mph - N/A   Clear
3:55 AM 57.2 °F 28.4 °F 33% 29.89 in 10.0 mi NW 13.8 mph - N/A   Clear
4:15 AM 57.2 °F 30.2 °F 36% 29.91 in 10.0 mi NW 10.4 mph - N/A   Clear
4:35 AM 55.4 °F 30.2 °F 38% 29.92 in 10.0 mi NW 12.7 mph - N/A   Clear
4:55 AM 55.4 °F 30.2 °F 38% 29.93 in 10.0 mi NW 12.7 mph - N/A   Clear
5:15 AM 53.6 °F 30.2 °F 41% 29.94 in 10.0 mi NW 11.5 mph - N/A   Clear
5:35 AM 53.6 °F 30.2 °F 41% 29.95 in 10.0 mi NW 9.2 mph - N/A   Clear
5:55 AM 51.8 °F 30.2 °F 44% 29.95 in 10.0 mi NW 11.5 mph - N/A   Clear
6:15 AM 51.8 °F 30.2 °F 44% 29.96 in 10.0 mi NW 8.1 mph - N/A   Clear
6:35 AM 51.8 °F 30.2 °F 44% 29.96 in 10.0 mi NNW 8.1 mph - N/A   Clear
6:55 AM 51.8 °F 28.4 °F 41% 29.97 in 10.0 mi North 5.8 mph - N/A   Clear
7:15 AM 51.8 °F 30.2 °F 44% 29.97 in 10.0 mi NW 10.4 mph - N/A   Clear
7:35 AM 55.4 °F 33.8 °F 44% 29.98 in 10.0 mi NW 12.7 mph - N/A   Clear
7:55 AM 57.2 °F 33.8 °F 41% 29.99 in 10.0 mi NNW 9.2 mph - N/A   Clear
8:15 AM 60.8 °F 33.8 °F 36% 29.99 in 10.0 mi NNW 11.5 mph - N/A   Clear
8:35 AM 62.6 °F 32.0 °F 32% 29.99 in 10.0 mi North 15.0 mph - N/A   Clear
8:55 AM 64.4 °F 33.8 °F 32% 29.99 in 10.0 mi North 13.8 mph - N/A   Clear
9:15 AM 66.2 °F 35.6 °F 32% 30.00 in 10.0 mi North 12.7 mph - N/A   Clear
9:35 AM 66.2 °F 37.4 °F 35% 30.00 in 10.0 mi North 13.8 mph - N/A   Clear
9:55 AM 69.8 °F 39.2 °F 33% 30.00 in 10.0 mi NNE 13.8 mph - N/A   Clear
10:15 AM 71.6 °F 39.2 °F 31% 30.00 in 10.0 mi NNE 16.1 mph - N/A   Clear
10:35 AM 71.6 °F 39.2 °F 31% 30.00 in 10.0 mi NNE 13.8 mph 18.4 mph N/A   Clear
10:55 AM 73.4 °F 39.2 °F 29% 30.00 in 10.0 mi NE 16.1 mph 23.0 mph N/A   Clear
11:15 AM 75.2 °F 37.4 °F 25% 30.00 in 10.0 mi NNE 15.0 mph - N/A   Clear
11:35 AM 77.0 °F 35.6 °F 22% 30.00 in 10.0 mi ENE 13.8 mph 18.4 mph N/A   Clear
11:55 AM 77.0 °F 35.6 °F 22% 29.99 in 10.0 mi NE 15.0 mph 19.6 mph N/A   Clear
12:15 PM 78.8 °F 33.8 °F 20% 29.99 in 10.0 mi ENE 10.4 mph - N/A   Clear
12:35 PM 80.6 °F 35.6 °F 20% 29.99 in 10.0 mi ENE 5.8 mph - N/A   Clear
12:55 PM 80.6 °F 32.0 °F 17% 29.98 in 10.0 mi Calm Calm - N/A   Clear
1:15 PM 80.6 °F 28.4 °F 15% 29.97 in 10.0 mi WNW 8.1 mph - N/A   Clear
1:35 PM 80.6 °F 28.4 °F 15% 29.97 in 10.0 mi Calm Calm - N/A   Clear
1:55 PM 80.6 °F 28.4 °F 15% 29.96 in 10.0 mi NE 5.8 mph - N/A   Clear
2:15 PM 82.4 °F 28.4 °F 14% 29.95 in 10.0 mi East 6.9 mph - N/A   Clear
2:35 PM 82.4 °F 28.4 °F 14% 29.95 in 10.0 mi WNW 4.6 mph - N/A   Clear
2:55 PM 84.2 °F 28.4 °F 13% 29.94 in 10.0 mi WSW 8.1 mph 19.6 mph N/A   Clear
3:15 PM 84.2 °F 28.4 °F 13% 29.94 in 10.0 mi Calm Calm - N/A   Clear
3:35 PM 84.2 °F 26.6 °F 12% 29.94 in 10.0 mi South 8.1 mph - N/A   Clear
3:55 PM 84.2 °F 28.4 °F 13% 29.93 in 10.0 mi SSW 8.1 mph - N/A   Clear
4:15 PM 84.2 °F 28.4 °F 13% 29.93 in 10.0 mi SSW 9.2 mph - N/A   Clear
4:35 PM 86.0 °F 28.4 °F 12% 29.91 in 10.0 mi South 8.1 mph 26.5 mph N/A   Clear
4:55 PM 86.0 °F 30.2 °F 13% 29.91 in 10.0 mi South 16.1 mph 25.3 mph N/A   Clear
5:15 PM 84.2 °F 28.4 °F 13% 29.91 in 10.0 mi Calm Calm - N/A   Clear
5:35 PM 87.8 °F 30.2 °F 13% 29.91 in 10.0 mi SSE 6.9 mph 18.4 mph N/A   Clear
5:55 PM 84.2 °F 30.2 °F 14% 29.90 in 10.0 mi Calm Calm - N/A   Clear
6:15 PM 86.0 °F 30.2 °F 13% 29.90 in 10.0 mi SW 6.9 mph - N/A   Clear
6:35 PM 84.2 °F 28.4 °F 13% 29.89 in 10.0 mi Calm Calm - N/A   Clear
6:55 PM 86.0 °F 30.2 °F 13% 29.89 in 10.0 mi SW 9.2 mph - N/A   Clear
7:15 PM 86.0 °F 28.4 °F 12% 29.89 in 10.0 mi WSW 8.1 mph - N/A   Clear
7:35 PM 84.2 °F 28.4 °F 13% 29.89 in 10.0 mi Calm Calm - N/A   Clear
7:55 PM 84.2 °F 28.4 °F 13% 29.88 in 10.0 mi South 3.5 mph - N/A   Clear
8:15 PM 84.2 °F 28.4 °F 13% 29.88 in 10.0 mi South 3.5 mph - N/A   Clear
8:35 PM 82.4 °F 26.6 °F 13% 29.88 in 10.0 mi SSW 3.5 mph - N/A   Clear
8:55 PM 80.6 °F 26.6 °F 14% 29.88 in 10.0 mi Calm Calm - N/A   Clear
9:15 PM 80.6 °F 26.6 °F 14% 29.89 in 10.0 mi Calm Calm - N/A   Clear
9:35 PM 78.8 °F 26.6 °F 15% 29.89 in 10.0 mi East 5.8 mph - N/A   Clear
9:55 PM 77.0 °F 30.2 °F 18% 29.89 in 10.0 mi East 6.9 mph - N/A   Clear
10:15 PM 73.4 °F 28.4 °F 19% 29.89 in 10.0 mi East 6.9 mph - N/A   Clear
10:35 PM 73.4 °F 28.4 °F 19% 29.90 in 6.0 mi East 9.2 mph - N/A   Clear
10:55 PM 73.4 °F 32.0 °F 22% 29.90 in 4.0 mi East 10.4 mph - N/A   Clear
11:15 PM 73.4 °F 30.2 °F 20% 29.91 in 5.0 mi East 9.2 mph - N/A   Clear
11:35 PM 73.4 °F 30.2 °F 20% 29.90 in 10.0 mi East 10.4 mph - N/A   Clear
11:55 PM 71.6 °F 30.2 °F 22% 29.91 in 10.0 mi East 15.0 mph - N/A   Clear